CW9561 Weather Reports


time (UTC)temp
C
wind
direction
speed
KPH
gust
KPH
rain 1hr
cm
rain 24hr
cm
rain mn
cm
humidity
%
barometer
mb
20260906104027 7 263 0.0 0.0 0.00 0.00 0.00 74 1028.3
20260906103023 7 263 0.0 0.0 0.00 0.00 0.00 75 1028.1
20260906102025 7 263 0.0 0.0 0.00 0.00 0.00 74 1028.0
20260906101022 7 263 0.0 0.0 0.00 0.00 0.00 75 1027.9
20260906100021 7 263 0.0 0.0 0.00 0.00 0.00 75 1027.8
20260906095036 8 263 0.0 0.0 0.00 0.00 0.00 75 1027.7
20260906094033 8 263 0.0 0.0 0.00 0.00 0.00 76 1027.5
20260906093035 7 263 0.0 0.0 0.00 0.00 0.00 76 1027.5
20260906092032 8 263 0.0 0.0 0.00 0.00 0.00 75 1027.4
20260906091030 8 263 0.0 0.0 0.00 0.00 0.00 76 1027.3
20260906090024 8 263 0.0 0.0 0.00 0.00 0.00 75 1027.3
20260906085025 8 263 0.0 0.0 0.00 0.00 0.00 75 1027.3
20260906084023 8 263 0.0 0.0 0.00 0.00 0.00 74 1027.3
20260906083021 8 263 0.0 0.0 0.00 0.00 0.00 73 1027.0
20260906082037 8 263 0.0 0.0 0.00 0.00 0.00 74 1027.0
20260906081033 9 263 0.0 0.0 0.00 0.00 0.00 72 1027.0
20260906080018 10 263 0.0 0.0 0.00 0.00 0.00 71 1027.6
20260906075037 10 263 1.6 0.0 0.00 0.00 0.00 71 1027.6
20260906074034 10 263 6.4 0.0 0.00 0.00 0.00 71 1027.6
20260906073030 10 263 6.4 0.0 0.00 0.00 0.00 70 1027.6
20260906072033 10 263 1.6 0.0 0.00 0.00 0.00 69 1027.8
20260906071029 10 263 0.0 0.0 0.00 0.00 0.00 69 1027.7
20260906070026 10 263 0.0 0.0 0.00 0.00 0.00 70 1027.7
20260906065022 10 263 0.0 0.0 0.00 0.00 0.00 71 1027.6
20260906064024 10 263 0.0 0.0 0.00 0.00 0.00 69 1027.6
20260906063021 10 263 3.2 0.0 0.00 0.00 0.00 69 1027.7
20260906062017 10 263 0.0 0.0 0.00 0.00 0.00 67 1027.7
20260906060036 11 263 6.4 0.0 0.00 0.00 0.00 66 1027.6
20260906055037 11 263 4.8 0.0 0.00 0.00 0.00 66 1027.7
20260906054034 11 263 4.8 0.0 0.00 0.00 0.00 64 1027.7
20260906053034 12 263 4.8 0.0 0.00 0.00 0.00 62 1027.7
20260906052032 12 263 4.8 0.0 0.00 0.00 0.00 60 1027.7
20260906051030 12 263 3.2 0.0 0.00 0.00 0.00 60 1027.7
20260906045033 12 263 4.8 0.0 0.00 0.00 0.00 59 1027.7
20260906044029 12 263 4.8 0.0 0.00 0.00 0.00 59 1027.8
20260906043025 12 263 4.8 0.0 0.00 0.00 0.00 59 1027.9
20260906042024 12 263 4.8 0.0 0.00 0.00 0.00 59 1027.9
20260906035027 13 263 0.0 0.0 0.00 0.00 0.00 55 1027.6
20260906034025 13 263 1.6 0.0 0.00 0.00 0.00 54 1027.5
20260906033027 13 263 0.0 0.0 0.00 0.00 0.00 54 1027.4
20260906032024 14 263 0.0 0.0 0.00 0.00 0.00 52 1027.4
20260906031041 15 263 0.0 0.0 0.00 0.00 0.00 51 1027.2
20260906030038 15 263 1.6 0.0 0.00 0.00 0.00 50 1027.2
20260906025035 16 263 0.0 0.0 0.00 0.00 0.00 49 1027.0
20260906024037 17 263 0.0 0.0 0.00 0.00 0.00 46 1026.8
20260906023035 17 263 0.0 0.0 0.00 0.00 0.00 45 1026.5
20260906022033 17 263 0.0 0.0 0.00 0.00 0.00 45 1026.3
20260906021032 17 263 0.0 0.0 0.00 0.00 0.00 45 1026.2
20260906020034 18 263 0.0 0.0 0.00 0.00 0.00 45 1026.2
20260906015031 18 263 0.0 0.0 0.00 0.00 0.00 44 1026.1
20260906014027 18 263 0.0 0.0 0.00 0.00 0.00 44 1026.0
20260906013023 19 263 0.0 0.0 0.00 0.00 0.00 41 1025.8
20260906012038 20 263 0.0 0.0 0.00 0.00 0.00 40 1025.9
20260906011041 20 263 0.0 0.0 0.00 0.00 0.00 37 1026.0
20260906010037 21 263 0.0 0.0 0.00 0.00 0.00 35 1026.0
20260906005035 21 263 0.0 0.0 0.00 0.00 0.00 36 1026.0
20260906004030 22 263 0.0 0.0 0.00 0.00 0.00 32 1026.0
20260906003033 22 263 0.0 0.0 0.00 0.00 0.00 32 1026.1
20260906002031 22 246 0.0 0.0 0.00 0.00 0.00 32 1026.1
20260906001028 22 245 0.0 0.0 0.00 0.00 0.00 30 1025.9
20260906000026 22 232 0.0 0.0 0.00 0.00 0.00 31 1025.9
20260905235026 22 232 0.0 0.0 0.00 0.00 0.00 31 1025.8
20260905234026 22 232 0.0 0.0 0.00 0.00 0.00 30 1025.8
20260905233023 23 231 0.0 0.0 0.00 0.00 0.00 29 1025.8
20260905232039 23 232 0.0 0.0 0.00 0.00 0.00 30 1025.7
20260905231034 23 225 0.0 0.0 0.00 0.00 0.00 30 1025.7
20260905230035 23 225 0.0 0.0 0.00 0.00 0.00 31 1025.7
20260905225031 23 144 0.0 0.0 0.00 0.00 0.00 29 1025.6
20260905223033 24 210 0.0 0.0 0.00 0.00 0.00 27 1025.6
20260905220036 25 271 1.6 0.0 0.00 0.00 0.00 26 1025.6
20260905215033 25 214 1.6 0.0 0.00 0.00 0.00 24 1025.7
20260905214029 25 138 1.6 0.0 0.00 0.00 0.00 25 1025.9
20260905213026 25 319 1.6 0.0 0.00 0.00 0.00 25 1026.1
20260905212032 25 337 1.6 0.0 0.00 0.00 0.00 29 1026.0
20260905211031 25 262 1.6 0.0 0.00 0.00 0.00 28 1026.5
20260905210029 23 159 3.2 0.0 0.00 0.00 0.00 30 1026.5
20260905205024 23 121 0.0 0.0 0.00 0.00 0.00 31 1026.5
20260905203027 25 187 3.2 0.0 0.00 0.00 0.00 28 1026.8
20260905201024 25 187 1.6 0.0 0.00 0.00 0.00 29 1026.9
20260905200025 25 121 0.0 0.0 0.00 0.00 0.00 30 1027.0
20260905195026 25 213 1.6 0.0 0.00 0.00 0.00 31 1027.3
20260905194022 24 278 1.6 0.0 0.00 0.00 0.00 30 1027.4
20260905193023 23 292 1.6 0.0 0.00 0.00 0.00 32 1027.7
20260905192038 22 167 0.0 0.0 0.00 0.00 0.00 32 1027.9
20260905191034 22 181 1.6 0.0 0.00 0.00 0.00 34 1027.9
20260905190019 23 77 1.6 0.0 0.00 0.00 0.00 35 1027.8
20260905185022 22 121 1.6 0.0 0.00 0.00 0.00 35 1027.9
20260905184040 22 87 3.2 0.0 0.00 0.00 0.00 39 1028.1
20260905183018 21 111 1.6 0.0 0.00 0.00 0.00 41 1028.1
20260905182024 21 95 4.8 0.0 0.00 0.00 0.00 41 1028.2
20260905181021 20 121 6.4 0.0 0.00 0.00 0.00 42 1028.3
20260905180022 21 92 1.6 0.0 0.00 0.00 0.00 41 1028.3
20260905175038 22 192 1.6 0.0 0.00 0.00 0.00 40 1028.4
20260905174034 21 150 3.2 0.0 0.00 0.00 0.00 41 1028.5
20260905172020 19 92 1.6 0.0 0.00 0.00 0.00 47 1028.7
20260905171038 18 69 3.2 0.0 0.00 0.00 0.00 49 1028.9
20260905170037 18 76 1.6 0.0 0.00 0.00 0.00 49 1029.2
20260905164040 18 92 1.6 0.0 0.00 0.00 0.00 49 1029.0
20260905163017 17 90 1.6 0.0 0.00 0.00 0.00 50 1029.0
20260905162038 16 331 0.0 0.0 0.00 0.00 0.00 52 1028.9
20260905161034 16 68 0.0 0.0 0.00 0.00 0.00 52 1029.0
20260905160036 15 68 0.0 0.0 0.00 0.00 0.00 54 1029.1
20260905155035 16 78 0.0 0.0 0.00 0.00 0.00 51 1029.0
20260905154032 16 341 0.0 0.0 0.00 0.00 0.00 53 1029.0
20260905153031 16 72 0.0 0.0 0.00 0.00 0.00 54 1028.4
20260905152030 15 86 0.0 0.0 0.00 0.00 0.00 55 1028.6
20260905151029 14 86 0.0 0.0 0.00 0.00 0.00 56 1028.6
20260905150026 15 86 0.0 0.0 0.00 0.00 0.00 54 1028.6
20260905145026 15 86 1.6 0.0 0.00 0.00 0.00 56 1028.7
20260905143031 15 280 0.0 0.0 0.00 0.00 0.00 56 1028.8
20260905142027 13 280 0.0 0.0 0.00 0.00 0.00 58 1028.9
20260905141025 13 281 0.0 0.0 0.00 0.00 0.00 58 1028.9
20260905135020 12 281 0.0 0.0 0.00 0.00 0.00 61 1028.9
20260905134023 10 280 0.0 0.0 0.00 0.00 0.00 68 1029.1
20260905131022 8 280 0.0 0.0 0.00 0.00 0.00 71 1027.9
20260905130021 7 280 0.0 0.0 0.00 0.00 0.00 72 1027.9
20260905125022 7 280 0.0 0.0 0.00 0.00 0.00 73 1027.9
20260905124021 7 280 3.2 0.0 0.00 0.00 0.00 73 1027.9
20260905121038 7 280 3.2 0.0 0.00 0.00 0.00 70 1028.2
20260905120039 8 280 0.0 0.0 0.00 0.00 0.00 69 1028.1
20260905115036 8 280 0.0 0.0 0.00 0.00 0.00 68 1028.1
20260905113038 9 280 0.0 0.0 0.00 0.00 0.00 63 1028.3
20260905112018 9 280 0.0 0.0 0.00 0.00 0.00 64 1028.1
20260905105035 8 280 0.0 0.0 0.00 0.00 0.00 67 1027.1